Погода в Чурьяково

Россия / Ярославская область     57°32′29″N   38°22′19″E
темп.,
°C
ветер,
м/с
пор.,
м/с
влажн.,
%
обл.,
%
осадки,
мм/ч
давл.,
гПа
погр.,
м
13 мая, чт
чт1300:00+13всв399274 0.1 1021237
03:00+12в28975 0.1 1020176
06:00+12юв279531 0.0 1020266
09:00+16юв487949 0.0 1020940
12:00+19юв465825 0.2 10191586
15:00+21юв474894 0.2 10162032
18:00+16в3582100 0.3 1014240
21:00+13вюв269696 0.8 1014164
14 мая, пт
пт1400:00+10ююз379596 0.3 1015137
03:00+9ю2897100 0.3 1016185
06:00+10ююв379443 0.0 1017245
09:00+15ю4672100 0.0 1017738
12:00+18ю465482 0.0 10161527
15:00+20ю475046 0.0 10151744
18:00+20ююв356065 0.0 1014808
21:00+14юв369595 1.3 1013130
15 мая, сб
сб1500:00+13вюв31095100 0.0 1012303
03:00+13вюв389861 0.3 1011226
06:00+15ююв41294100 0.1 1010397
09:00+18ю51383100 0.4 1009773
12:00+22ю7105899 0.0 10091589
15:00+19ю4983100 2.7 1008462
18:00+18ююз5986100 6.5 1007436
21:00+14ююз38924 7.1 1008155
16 мая, вс
вс1600:00+12ю38961 0.0 1009172
03:00+12ю4119696 0.0 1009257
06:00+13ююз412935 0.0 1009472
09:00+16ююз6107154 0.0 1009848
12:00+19ююз685645 0.1 10091832
15:00+18зюз687086 1.4 10101446
18:00+17зюз587840 1.1 1011869
21:00+13зюз26965 1.1 1013129
17 мая, пн
пн1700:00+11з239644 0.0 101561
03:00+10зсз119559 0.0 101611
06:00+12ссв009185 0.0 101753
09:00+17вюв117299 0.0 1017551
12:00+21в2356100 0.0 10171304
15:00+22вюв445328 0.0 10161350
18:00+20в476580 0.0 1015765
21:00+16в412855 0.0 1015336